Location: Gipe Farm
(40.9466°N, 95.5370°W)
Time: 12:30:21
(UTC-05:00)

Cosmos 1842 - Visible Passes

Search period start: 26 May 2018 00:00
Search period end: 05 June 2018 00:00
Orbit: 522 x 540 km, 82.5° (Epoch: 25 May)

Date Brightness Start Highest point End Pass type
(mag) Time Alt. Az. Time Alt. Az. Time Alt. Az.
26 May 4.0 00:06:40 50° N 00:06:40 50° N 00:09:38 10° N visible
26 May 3.8 23:56:15 56° NNE 23:56:15 56° NNE 23:59:23 10° N visible
27 May 3.6 23:45:49 61° NNE 23:45:49 61° NNE 23:49:08 10° N visible
28 May 3.4 23:35:21 66° NE 23:35:21 66° NE 23:38:53 10° NNE visible
29 May 3.2 23:24:53 67° ENE 23:24:53 67° ENE 23:28:37 10° NNE visible
30 May 3.2 23:14:22 63° ESE 23:14:29 63° E 23:18:21 10° NNE visible
31 May 3.3 23:03:50 55° SE 23:04:14 59° E 23:08:05 10° NNE visible
01 Jun 3.4 22:53:15 46° SE 22:53:59 54° E 22:57:49 10° NNE visible
02 Jun 6.2 00:29:45 10° WNW 00:30:22 10° WNW 00:31:00 10° WNW visible
02 Jun 3.5 22:42:39 38° SE 22:43:44 50° E 22:47:32 10° NNE visible
03 Jun 6.1 00:18:57 10° W 00:20:05 11° WNW 00:21:13 10° NW visible
03 Jun 3.6 22:32:01 30° SSE 22:33:30 47° E 22:37:14 10° NNE visible
04 Jun 6.1 00:08:20 10° W 00:09:47 12° WNW 00:11:16 10° NW visible
04 Jun 3.7 22:21:19 24° SSE 22:23:14 43° E 22:26:58 10° NNE visible
